SCP
0 0 -0 -0 0 -0 -0 -0 -0 -0 0 0 -0 -0 -0 -0 -0 0 0 -0 -0 -0 -0 -0 -0 -0 -0 -0 -0 -0 -0 -0 -0 -0 -0 -0 -0 -0 -0 -0 -0 -0 -0 -0 -0 -0 -0 -0 -0
0 0 0 -0 0 0 0 -0 0 0 0 -0 -0 0 -0 -0 -0 -0 -0 0 -0 -0 -0 -0 -0 -0 -0 -0 -0 -0 -0 -0 0 0 -0 -0 -0 -0 -0 -0 -0 -0 -0 -0 -0 -0 -0 -0 -0
0 0 0 -0 -0 -0 0 0 0 0 -0 -0 0 0 0 -0 -0 -0 0 -0 -0 -0 -0 -0 -0 -0 -0 -0 -0 -0 -0 -0 -0 -0 -0 0 0 0 0 -0 -0 -0 -0 -0 -0 -0 -0 0 0
0 0 0 -0 0 0 -0 -0 0 -0 -0 -0 -0 0 -0 -0 -0 0 -0 -0 -0 -0 0 -0 -0 -0 -0 -0 -0 -0 -0 -0 -0 -0 -0 0 0 0 -0 0 0 0 -0 -0 -0 -0 -0 -0 -0
0 0 -0 0 0 0 0 -0 -0 -0 0 -0 -0 -0 -0 0 -0 -0 -0 -0 -0 -0 0 -0 -0 -0 -0 -0 -0 -0 -0 -0 -0 -0 -0 -0 -0 -0 -0 -0 -0 -0 -0 -0 -0 -0 -0 -0 -0
0 0 0 0 0 0 0 0 -0 -0 -0 -0 -0 0 -0 -0 -0 -0 -0 -0 -0 -0 -0 0 -0 -0 -0 -0 -0 -0 -0 -0 -0 -0 -0 -0 -0 -0 -0 -0 -0 -0 -0 -0 -0 -0 -0 -0 -0
0 0 0 0 0 0 0 -0 -0 -0 0 -0 0 0 -0 -0 0 -0 -0 0 0 -0 -0 -0 -0 -0 -0 -0 -0 -0 -0 -0 -0 -0 -0 -0 -0 -0 -0 -0 -0 -0 -0 -0 -0 -0 -0 -0 -0
0 0 0 0 0 0 0 0 0 0 0 0 -0 -0 -0 -0 0 0 0 0 0 0 -0 -0 -0 0 0 0 -0 -0 0 0 0 -0 -0 -0 -0 -0 -0 -0 -0 -0 -0 -0 -0 -0 -0 -0 -0
0 0 0 0 0 0 -0 0 0 0 0 -0 -0 0 0 -0 -0 0 0 0 0 0 -0 -0 -0 0 0 0 0 0 -0 0 0 -0 -0 -0 -0 -0 -0 -0 -0 -0 -0 -0 -0 -0 -0 -0 -0
0 0 0 0 -0 -0 -0 0 -0 -0 -0 0 0 0 0 0 0 -0 0 0 0 0 0 -0 0 0 0 0 0 0 0 0 0 0 0 0 0 -0 -0 -0 -0 -0 -0 -0 -0 -0 -0 -0 -0
0 0 0 0 -0 -0 -0 -0 -0 -0 -0 0 0 0 0 0 0 0 -0 -0 0 -0 0 0 0 0 0 0 0 0 0 0 0 0 0 0 0 0 0 -0 -0 -0 -0 -0 -0 -0 -0 -0 -0
0 0 0 -0 -0 -0 -0 0 -0 0 0 0 0 0 0 0 0 0 0 -0 0 0 -0 -0 -0 -0 0 0 0 0 0 0 0 0 0 0 0 0 0 0 -0 -0 -0 -0 -0 -0 -0 -0 -0
0 0 0 0 -0 -0 0 0 0 0 0 0 0 0 0 0 0 0 0 0 0 0 0 0 0 0 0 0 0 0 0 0 0 0 0 0 0 0 0 0 0 0 -0 -0 -0 -0 -0 -0 -0
0 0 0 0 0 0 0 0 0 0 0 0 0 0 0 -0 0 0 -0 0 0 0 0 0 0 0 0 0 0 0 0 0 0 0 0 0 0 0 0 0 0 0 0 0 0 0 -0 -0 -0
0 0 0 0 0 0 0 0 0 0 0 0 0 0 0 -0 -0 -0 -0 -0 0 0 0 0 0 0 0 0 0 0 0 0 0 0 0 0 0 0 0 0 0 0 0 0 0 0 0 0 -0
0 0 0 0 0 0 0 0 0 0 -0 -0 0 0 0 0 0 0 0 0 0 0 0 0 0 0 0 0 0 0 0 0 0 0 0 0 0 0 0 0 0 0 0 0 0 0 0 0 0
0 0 0 0 -0 -0 0 0 0 0 -0 0 0 0 0 0 0 0 0 0 0 0 0 0 0 0 0 0 0 0 0 1 0 0 0 0 0 0 0 0 0 0 0 0 0 0 0 0 0
0 0 0 0 0 0 0 0 0 0 0 0 0 0 0 0 0 0 0 0 0 0 0 0 0 0 0 0 0 0 0 1 0 0 0 0 1 0 0 0 0 0 0 0 0 0 0 0 0
0 0 0 0 0 0 0 0 0 0 0 0 0 0 0 0 0 0 0 0 0 0 0 0 0 0 0 0 0 1 0 0 0 0 0 0 0 1 1 0 0 0 0 0 0 0 0 0 0
0 0 0 0 0 0 0 0 0 0 0 0 0 0 0 0 0 0 0 0 0 0 0 0 0 0 0 0 0 0 0 0 0 0 0 0 0 0 0 0 0 0 0 0 0 0 0 0 0
0 0 0 0 0 0 0 0 0 0 0 0 0 0 0 0 0 0 0 0 0 0 0 0 0 0 0 0 0 0 0 0 0 0 0 0 -0 -0 0 0 0 0 0 0 0 0 0 0 0
0 0 0 0 0 0 0 0 0 0 0 0 0 0 0 0 0 0 -0 -0 -0 0 0 0 0 0 0 0 0 0 0 0 0 0 0 0 0 0 0 0 0 0 0 0 0 0 0 0 0
0 0 0 0 0 0 0 0 0 0 0 0 0 0 0 0 -0 -0 -0 -0 -0 0 0 0 0 0 0 0 0 0 0 0 0 0 0 0 0 0 0 0 0 0 0 0 0 0 0 0 0
0 0 0 0 0 0 0 0 0 0 0 0 0 0 0 0 -0 -0 -0 -0 -0 -0 -0 0 0 0 0 0 0 0 0 0 0 0 0 0 0 0 0 0 0 0 0 0 0 0 0 0 0
0 0 0 0 0 0 0 0 0 0 0 0 0 0 0 0 0 -0 -0 -0 -0 -0 0 0 0 0 0 0 0 0 0 0 0 0 0 0 0 0 0 0 0 0 0 0 0 0 0 0 0
0 0 0 0 0 0 0 0 0 0 0 0 0 0 0 -0 -0 -0 -0 -0 -0 -0 -0 -0 0 0 0 0 0 0 0 0 0 0 0 0 0 0 0 0 0 0 0 0 0 0 0 0 0
0 0 0 0 0 0 0 0 0 0 0 0 0 0 -0 -0 -0 -0 -0 -0 -0 -0 -0 -0 -0 0 0 0 0 0 0 0 0 0 0 0 0 0 0 0 0 0 0 0 0 0 0 0 0
0 0 0 0 0 0 0 0 0 0 0 0 0 -0 -0 -0 -0 -0 -0 0 0 0 0 -0 -0 0 0 0 0 0 0 -0 -0 -0 -0 -0 -0 0 0 0 0 0 0 0 0 0 0 0 0
0 0 0 0 0 0 0 0 0 0 0 0 -0 -0 0 0 0 0 0 0 0 0 0 -0 0 0 0 0 0 0 0 -0 -0 -0 -0 -0 -0 -0 0 0 0 0 0 0 0 0 0 0 0
0 0 0 0 0 0 0 0 0 0 0 0 0 0 0 0 0 0 0 0 0 0 0 0 0 0 0 0 0 0 0 -0 -0 -0 -0 -0 -0 -0 -0 0 0 0 0 0 0 0 0 0 0
Wind_Speed_500mb
12 15 16 4 6 9 4 13 7 9 8 10 18 9 9 4 5 7 46 59 61 59 54 48 38 31 28 29 29 28 27 26 25 25 25 23 21 19 19 20 21 26 31 32 31 30 32 32 32
11 9 3 3 8 4 9 5 17 28 26 17 13 10 3 2 11 36 63 60 60 58 53 48 40 34 31 30 29 27 27 25 24 24 23 21 18 17 18 18 20 24 28 30 29 27 28 30 28
7 3 2 8 7 7 8 11 15 22 51 3 4 2 5 2 22 63 57 62 64 57 51 46 40 36 33 32 31 29 26 25 23 21 19 18 16 15 15 17 19 22 24 26 26 27 27 22 19
5 4 7 7 9 15 15 13 15 7 18 28 14 1 13 7 49 42 52 63 62 56 50 44 38 34 32 31 29 28 27 25 23 20 18 17 15 14 14 15 19 21 23 25 27 28 25 20 16
3 4 6 2 11 13 9 16 37 13 21 15 19 7 12 35 15 40 51 64 57 55 50 43 37 33 30 29 27 25 24 23 21 19 16 14 12 11 11 12 15 19 23 25 26 28 28 24 19
4 5 9 4 10 14 14 3 46 19 19 11 11 11 7 20 31 43 54 60 53 51 48 43 38 33 29 27 25 22 21 20 18 17 15 12 9 7 7 8 10 14 18 23 25 26 25 23 19
9 8 6 6 11 12 12 17 9 28 22 4 10 9 12 28 45 53 55 55 50 47 46 43 39 36 31 27 23 21 18 16 15 13 12 9 7 5 4 4 5 8 13 18 22 24 24 22 22
1 9 4 5 7 12 18 8 18 25 12 28 14 14 15 43 54 51 51 51 51 47 44 42 40 37 33 30 27 24 20 17 14 12 10 8 5 3 1 1 3 3 6 11 16 19 21 22 22
3 9 6 8 6 10 16 11 17 9 18 1 4 25 42 62 52 47 45 46 44 41 35 33 34 34 32 30 28 25 23 21 19 16 14 12 9 6 5 2 3 4 4 5 9 13 17 19 22
8 7 8 8 5 6 5 13 6 8 12 10 33 39 55 53 45 38 37 36 38 35 32 28 28 29 30 31 29 27 26 22 18 17 16 14 11 12 8 7 6 3 2 2 6 10 12 15 16
3 8 9 13 12 6 11 9 5 23 5 16 45 58 56 50 43 39 37 29 25 31 31 27 28 28 30 28 27 29 27 25 21 20 19 19 18 17 15 12 9 7 5 4 6 10 8 8 11
2 12 14 6 3 12 7 21 5 34 21 31 50 59 57 44 29 29 31 35 32 33 33 31 39 41 39 35 34 30 29 29 27 24 24 25 24 23 20 14 11 12 12 12 11 12 13 13 17
5 6 11 7 2 10 21 8 16 40 43 45 60 64 56 51 37 27 28 38 36 30 29 28 35 38 44 39 37 36 34 32 28 30 32 32 32 32 28 23 21 15 16 19 20 20 18 17 16
10 9 2 9 7 4 6 7 13 23 43 48 50 46 44 44 39 30 25 30 43 43 42 41 38 42 38 45 42 39 38 32 30 29 30 35 37 38 37 32 27 26 23 21 24 27 30 30 27
6 1 9 6 2 4 7 15 7 42 46 50 45 38 33 28 24 24 22 24 26 32 33 27 29 40 42 42 43 40 34 33 37 35 35 30 31 30 32 33 34 33 31 30 32 35 37 42 44
10 11 8 9 5 3 12 2 7 37 53 46 41 40 38 35 27 18 16 14 13 19 24 25 28 33 33 48 51 46 47 47 48 48 45 39 43 44 45 45 42 36 39 38 39 40 45 45 47
13 3 4 16 6 4 11 9 17 20 58 44 39 36 37 37 30 24 15 3 6 20 33 40 35 40 35 40 47 50 48 48 48 51 51 47 49 58 62 55 50 45 47 49 50 47 47 50 46
6 6 5 6 11 14 29 15 13 23 44 42 39 35 36 34 29 22 16 10 6 9 13 18 26 35 41 42 45 48 45 43 43 45 49 50 43 44 44 47 56 64 53 56 53 50 50 50 49
5 4 6 10 14 14 16 19 14 21 35 38 36 34 33 31 28 25 24 17 9 4 2 20 22 28 34 39 46 48 54 57 50 58 60 56 58 59 57 56 46 51 54 65 60 54 45 45 48
9 9 8 7 13 15 19 17 17 19 12 29 35 30 30 29 28 25 24 21 18 14 9 6 9 17 26 27 30 37 47 50 48 49 54 56 54 49 48 52 56 59 59 58 57 48 40 32 28
8 12 4 3 8 11 13 8 10 12 23 27 33 32 31 29 28 25 25 25 24 22 21 18 18 21 20 19 19 24 33 33 31 34 41 42 43 42 43 53 64 66 49 41 67 63 48 42 33
6 6 8 5 9 4 8 7 6 9 9 13 30 33 32 30 27 26 26 28 28 33 29 27 26 26 30 31 27 25 24 25 25 25 25 30 31 28 26 29 31 52 66 67 75 78 75 63 62
9 6 5 5 8 8 5 8 2 10 11 10 15 28 33 31 27 25 21 21 25 25 24 26 27 26 29 33 32 30 28 29 25 21 20 22 22 18 15 21 24 30 44 53 58 52 48 43 39
6 7 11 9 6 3 8 9 8 13 14 11 17 25 30 31 26 19 17 18 20 18 19 22 24 29 29 30 29 30 31 31 29 29 26 22 18 17 11 7 11 21 26 32 39 33 30 31 39
15 13 8 10 9 10 3 4 13 3 20 24 36 33 24 19 17 16 15 15 15 14 16 18 21 23 23 24 27 29 29 27 27 27 27 23 22 21 18 12 10 9 11 17 30 38 44 57 62
8 11 10 7 5 10 7 6 9 8 21 27 32 27 23 21 19 16 14 11 8 9 11 15 17 17 19 22 25 28 31 34 34 32 30 27 26 24 20 18 15 12 14 14 7 14 27 41 43
5 2 5 11 4 4 5 2 7 4 3 14 24 28 31 27 23 19 15 10 6 5 5 8 8 10 13 18 23 28 32 34 36 35 34 33 30 26 24 22 20 18 13 11 16 15 12 12 16
6 9 5 6 5 8 8 6 8 14 20 14 23 42 40 32 31 27 20 16 9 4 3 5 4 5 8 12 17 25 31 35 35 37 39 37 33 28 24 20 20 21 22 22 16 9 7 12 16
8 3 11 9 8 9 3 10 11 27 28 29 43 57 47 42 39 34 28 22 14 8 1 2 3 5 5 5 15 17 26 30 34 38 44 44 42 39 35 33 29 25 22 20 21 21 25 29 28
8 5 8 9 8 4 6 11 8 14 31 44 55 61 54 52 44 38 31 27 22 15 8 2 8 10 6 3 5 13 20 25 26 30 35 39 42 43 41 42 43 36 27 23 21 19 20 23 24
Wind_Direction_500mb
312 298 289 259 65 66 209 233 272 246 291 208 150 170 229 37 181 202 148 165 164 158 156 160 156 152 152 152 149 146 140 138 143 146 146 147 149 146 142 138 135 136 136 133 129 127 127 125 124
312 294 257 137 89 67 255 229 212 220 225 352 222 273 21 26 104 138 153 166 166 160 157 160 158 158 159 157 154 151 146 141 137 137 139 141 146 152 152 148 144 145 144 143 141 140 136 131 132
329 272 177 94 111 190 224 218 224 242 230 276 246 248 82 207 133 147 160 164 168 162 160 162 161 162 161 159 155 153 152 148 147 146 144 144 146 149 154 161 162 162 161 161 160 156 154 153 151
334 120 65 85 251 247 211 169 217 221 218 206 251 44 81 346 144 154 164 166 167 163 162 165 164 165 163 160 158 156 153 153 152 155 157 158 159 162 165 169 177 181 181 179 176 177 178 175 175
49 100 62 342 271 268 263 184 183 156 162 212 202 165 73 140 153 163 164 167 167 163 165 167 165 165 165 161 160 157 157 155 153 150 156 158 162 168 175 184 190 195 196 195 194 196 204 213 211
94 70 54 289 263 277 283 261 182 159 174 163 133 84 64 175 177 163 165 165 168 166 166 168 168 169 169 167 163 163 160 156 154 151 150 153 155 167 186 197 205 211 212 209 207 206 206 207 205
117 87 192 260 280 329 325 40 88 127 132 209 158 80 128 154 167 158 166 168 168 171 170 171 172 173 175 174 173 170 174 171 165 163 158 159 162 166 186 213 222 225 223 220 216 215 214 209 204
313 93 27 270 335 345 336 55 72 99 126 135 146 158 171 158 155 160 167 170 172 175 177 176 178 180 182 182 183 183 182 183 177 179 175 175 185 198 206 315 327 287 245 228 221 218 217 216 210
191 55 354 338 8 300 9 69 49 89 134 203 185 145 150 149 153 158 169 176 179 181 187 190 190 190 191 193 195 196 195 194 192 194 199 204 207 216 233 278 337 350 326 255 225 215 211 209 207
90 93 236 190 254 192 90 68 87 115 137 116 107 111 144 152 155 156 155 170 182 192 197 206 210 207 207 210 210 215 213 211 211 213 217 218 219 209 203 219 244 269 302 254 209 201 202 201 199
149 183 212 277 188 207 99 83 94 125 246 40 110 134 150 161 168 167 163 173 171 186 197 217 219 226 232 236 238 233 235 233 230 231 235 238 238 233 232 240 233 220 215 168 154 165 175 218 244
295 242 216 250 223 132 95 129 113 48 85 112 131 145 149 158 164 185 196 195 195 201 212 219 220 222 228 234 241 250 251 255 257 256 256 256 259 253 247 247 219 210 206 195 198 208 219 243 264
186 295 170 172 284 78 131 154 89 88 107 118 125 133 129 129 135 156 188 206 213 221 230 239 233 234 234 241 248 247 263 264 269 273 270 267 265 267 262 255 233 214 217 227 237 249 255 267 268
307 306 26 209 143 101 104 144 106 99 120 118 127 119 130 138 131 139 149 176 197 207 217 232 236 239 241 246 252 252 254 255 262 277 290 277 275 271 270 264 253 241 237 244 258 264 268 271 270
334 2 350 323 342 95 117 41 48 139 131 107 109 114 126 125 156 151 146 155 178 199 217 236 251 251 252 249 254 257 261 265 274 272 279 272 276 276 274 274 270 266 260 261 268 269 274 278 267
33 49 30 286 28 45 117 133 203 145 139 108 103 107 115 111 108 128 160 199 229 234 253 272 269 257 262 255 254 260 265 271 276 276 274 272 269 274 274 275 278 277 272 274 275 280 282 286 286
13 252 240 311 287 192 80 97 114 118 110 94 94 95 97 102 105 101 103 105 292 283 277 274 270 257 264 265 257 260 272 273 276 272 276 275 277 275 272 271 280 277 269 275 276 276 280 282 286
254 355 335 258 313 67 86 115 77 99 97 95 94 92 92 94 83 87 103 128 192 263 251 241 240 246 255 267 262 256 255 252 259 262 265 262 270 276 286 281 272 268 265 265 272 276 283 286 286
149 118 80 331 342 75 99 99 87 85 83 88 95 97 89 85 81 88 94 96 76 32 333 230 239 238 251 242 237 239 247 255 277 262 267 282 277 275 273 276 276 269 267 259 263 268 278 286 288
82 99 345 310 0 91 106 80 56 42 55 105 119 115 109 102 100 97 95 90 80 74 59 356 321 287 280 287 281 274 272 282 290 288 287 290 291 288 282 276 278 272 264 266 264 271 260 261 299
29 111 81 121 344 56 112 104 112 49 78 101 123 134 134 134 120 103 92 81 73 65 52 37 11 1 356 355 345 324 307 303 304 303 308 315 319 325 320 280 275 272 283 287 293 266 278 266 275
108 188 132 90 59 216 45 250 140 153 140 140 141 141 146 144 140 122 104 88 68 57 52 45 39 26 26 24 17 7 353 357 3 348 335 330 337 345 336 317 297 268 258 255 252 255 265 274 269
189 151 77 123 120 103 343 103 208 153 199 190 170 159 159 154 141 128 108 82 67 58 40 34 32 23 17 11 12 17 23 26 23 18 10 3 6 0 356 330 285 271 254 247 248 272 283 277 226
109 79 55 62 101 63 237 140 239 192 189 155 197 180 166 157 148 130 103 80 71 67 49 33 21 16 18 24 26 31 33 36 34 36 35 23 18 26 22 359 324 299 285 279 268 283 273 252 241
68 55 350 351 7 220 244 67 246 179 165 172 190 181 163 144 132 116 106 100 81 63 49 32 20 23 33 29 25 27 30 28 26 29 30 28 23 19 17 359 333 303 302 291 275 274 267 256 262
71 131 149 242 239 270 291 232 279 193 190 183 181 174 172 172 162 148 140 124 100 70 47 29 30 30 30 34 37 39 38 37 35 27 19 16 14 10 4 9 16 4 335 329 326 271 280 270 274
163 68 172 104 6 12 238 357 346 104 214 195 199 199 202 196 188 177 172 164 140 89 50 41 47 38 47 48 53 45 35 30 30 32 29 23 15 6 358 348 340 351 359 323 4 16 358 342 321
87 155 70 9 224 263 295 256 226 202 213 206 215 218 217 212 208 201 200 204 202 165 68 85 81 59 74 67 42 25 27 28 30 29 30 28 22 12 6 355 347 338 338 326 309 317 352 19 18
356 21 51 118 145 187 271 267 214 205 198 204 216 220 221 220 219 214 215 212 208 197 174 162 221 170 124 46 12 24 23 27 26 27 26 25 25 24 17 9 357 344 338 334 336 333 305 293 283
192 131 127 128 233 222 154 275 293 220 202 200 218 224 230 234 235 231 227 224 224 210 207 246 242 208 216 286 56 31 14 14 18 15 15 16 20 20 14 9 9 5 346 334 322 325 327 326 319
Wind_Speed_850mb
12 15 16 4 6 9 4 13 7 9 8 10 18 9 9 4 5 7 46 59 61 59 54 48 38 31 28 29 29 28 27 26 25 25 25 23 21 19 19 20 21 26 31 32 31 30 32 32 32
11 9 3 3 8 4 9 5 17 28 26 17 13 10 3 2 11 36 63 60 60 58 53 48 40 34 31 30 29 27 27 25 24 24 23 21 18 17 18 18 20 24 28 30 29 27 28 30 28
7 3 2 8 7 7 8 11 15 22 51 3 4 2 5 2 22 63 57 62 64 57 51 46 40 36 33 32 31 29 26 25 23 21 19 18 16 15 15 17 19 22 24 26 26 27 27 22 19
5 4 7 7 9 15 15 13 15 7 18 28 14 1 13 7 49 42 52 63 62 56 50 44 38 34 32 31 29 28 27 25 23 20 18 17 15 14 14 15 19 21 23 25 27 28 25 20 16
3 4 6 2 11 13 9 16 37 13 21 15 19 7 12 35 15 40 51 64 57 55 50 43 37 33 30 29 27 25 24 23 21 19 16 14 12 11 11 12 15 19 23 25 26 28 28 24 19
4 5 9 4 10 14 14 3 46 19 19 11 11 11 7 20 31 43 54 60 53 51 48 43 38 33 29 27 25 22 21 20 18 17 15 12 9 7 7 8 10 14 18 23 25 26 25 23 19
9 8 6 6 11 12 12 17 9 28 22 4 10 9 12 28 45 53 55 55 50 47 46 43 39 36 31 27 23 21 18 16 15 13 12 9 7 5 4 4 5 8 13 18 22 24 24 22 22
1 9 4 5 7 12 18 8 18 25 12 28 14 14 15 43 54 51 51 51 51 47 44 42 40 37 33 30 27 24 20 17 14 12 10 8 5 3 1 1 3 3 6 11 16 19 21 22 22
3 9 6 8 6 10 16 11 17 9 18 1 4 25 42 62 52 47 45 46 44 41 35 33 34 34 32 30 28 25 23 21 19 16 14 12 9 6 5 2 3 4 4 5 9 13 17 19 22
8 7 8 8 5 6 5 13 6 8 12 10 33 39 55 53 45 38 37 36 38 35 32 28 28 29 30 31 29 27 26 22 18 17 16 14 11 12 8 7 6 3 2 2 6 10 12 15 16
3 8 9 13 12 6 11 9 5 23 5 16 45 58 56 50 43 39 37 29 25 31 31 27 28 28 30 28 27 29 27 25 21 20 19 19 18 17 15 12 9 7 5 4 6 10 8 8 11
2 12 14 6 3 12 7 21 5 34 21 31 50 59 57 44 29 29 31 35 32 33 33 31 39 41 39 35 34 30 29 29 27 24 24 25 24 23 20 14 11 12 12 12 11 12 13 13 17
5 6 11 7 2 10 21 8 16 40 43 45 60 64 56 51 37 27 28 38 36 30 29 28 35 38 44 39 37 36 34 32 28 30 32 32 32 32 28 23 21 15 16 19 20 20 18 17 16
10 9 2 9 7 4 6 7 13 23 43 48 50 46 44 44 39 30 25 30 43 43 42 41 38 42 38 45 42 39 38 32 30 29 30 35 37 38 37 32 27 26 23 21 24 27 30 30 27
6 1 9 6 2 4 7 15 7 42 46 50 45 38 33 28 24 24 22 24 26 32 33 27 29 40 42 42 43 40 34 33 37 35 35 30 31 30 32 33 34 33 31 30 32 35 37 42 44
10 11 8 9 5 3 12 2 7 37 53 46 41 40 38 35 27 18 16 14 13 19 24 25 28 33 33 48 51 46 47 47 48 48 45 39 43 44 45 45 42 36 39 38 39 40 45 45 47
13 3 4 16 6 4 11 9 17 20 58 44 39 36 37 37 30 24 15 3 6 20 33 40 35 40 35 40 47 50 48 48 48 51 51 47 49 58 62 55 50 45 47 49 50 47 47 50 46
6 6 5 6 11 14 29 15 13 23 44 42 39 35 36 34 29 22 16 10 6 9 13 18 26 35 41 42 45 48 45 43 43 45 49 50 43 44 44 47 56 64 53 56 53 50 50 50 49
5 4 6 10 14 14 16 19 14 21 35 38 36 34 33 31 28 25 24 17 9 4 2 20 22 28 34 39 46 48 54 57 50 58 60 56 58 59 57 56 46 51 54 65 60 54 45 45 48
9 9 8 7 13 15 19 17 17 19 12 29 35 30 30 29 28 25 24 21 18 14 9 6 9 17 26 27 30 37 47 50 48 49 54 56 54 49 48 52 56 59 59 58 57 48 40 32 28
8 12 4 3 8 11 13 8 10 12 23 27 33 32 31 29 28 25 25 25 24 22 21 18 18 21 20 19 19 24 33 33 31 34 41 42 43 42 43 53 64 66 49 41 67 63 48 42 33
6 6 8 5 9 4 8 7 6 9 9 13 30 33 32 30 27 26 26 28 28 33 29 27 26 26 30 31 27 25 24 25 25 25 25 30 31 28 26 29 31 52 66 67 75 78 75 63 62
9 6 5 5 8 8 5 8 2 10 11 10 15 28 33 31 27 25 21 21 25 25 24 26 27 26 29 33 32 30 28 29 25 21 20 22 22 18 15 21 24 30 44 53 58 52 48 43 39
6 7 11 9 6 3 8 9 8 13 14 11 17 25 30 31 26 19 17 18 20 18 19 22 24 29 29 30 29 30 31 31 29 29 26 22 18 17 11 7 11 21 26 32 39 33 30 31 39
15 13 8 10 9 10 3 4 13 3 20 24 36 33 24 19 17 16 15 15 15 14 16 18 21 23 23 24 27 29 29 27 27 27 27 23 22 21 18 12 10 9 11 17 30 38 44 57 62
8 11 10 7 5 10 7 6 9 8 21 27 32 27 23 21 19 16 14 11 8 9 11 15 17 17 19 22 25 28 31 34 34 32 30 27 26 24 20 18 15 12 14 14 7 14 27 41 43
5 2 5 11 4 4 5 2 7 4 3 14 24 28 31 27 23 19 15 10 6 5 5 8 8 10 13 18 23 28 32 34 36 35 34 33 30 26 24 22 20 18 13 11 16 15 12 12 16
6 9 5 6 5 8 8 6 8 14 20 14 23 42 40 32 31 27 20 16 9 4 3 5 4 5 8 12 17 25 31 35 35 37 39 37 33 28 24 20 20 21 22 22 16 9 7 12 16
8 3 11 9 8 9 3 10 11 27 28 29 43 57 47 42 39 34 28 22 14 8 1 2 3 5 5 5 15 17 26 30 34 38 44 44 42 39 35 33 29 25 22 20 21 21 25 29 28
8 5 8 9 8 4 6 11 8 14 31 44 55 61 54 52 44 38 31 27 22 15 8 2 8 10 6 3 5 13 20 25 26 30 35 39 42 43 41 42 43 36 27 23 21 19 20 23 24
Wind_Direction_850mb
312 298 289 259 65 66 209 233 272 246 291 208 150 170 229 37 181 202 148 165 164 158 156 160 156 152 152 152 149 146 140 138 143 146 146 147 149 146 142 138 135 136 136 133 129 127 127 125 124
312 294 257 137 89 67 255 229 212 220 225 352 222 273 21 26 104 138 153 166 166 160 157 160 158 158 159 157 154 151 146 141 137 137 139 141 146 152 152 148 144 145 144 143 141 140 136 131 132
329 272 177 94 111 190 224 218 224 242 230 276 246 248 82 207 133 147 160 164 168 162 160 162 161 162 161 159 155 153 152 148 147 146 144 144 146 149 154 161 162 162 161 161 160 156 154 153 151
334 120 65 85 251 247 211 169 217 221 218 206 251 44 81 346 144 154 164 166 167 163 162 165 164 165 163 160 158 156 153 153 152 155 157 158 159 162 165 169 177 181 181 179 176 177 178 175 175
49 100 62 342 271 268 263 184 183 156 162 212 202 165 73 140 153 163 164 167 167 163 165 167 165 165 165 161 160 157 157 155 153 150 156 158 162 168 175 184 190 195 196 195 194 196 204 213 211
94 70 54 289 263 277 283 261 182 159 174 163 133 84 64 175 177 163 165 165 168 166 166 168 168 169 169 167 163 163 160 156 154 151 150 153 155 167 186 197 205 211 212 209 207 206 206 207 205
117 87 192 260 280 329 325 40 88 127 132 209 158 80 128 154 167 158 166 168 168 171 170 171 172 173 175 174 173 170 174 171 165 163 158 159 162 166 186 213 222 225 223 220 216 215 214 209 204
313 93 27 270 335 345 336 55 72 99 126 135 146 158 171 158 155 160 167 170 172 175 177 176 178 180 182 182 183 183 182 183 177 179 175 175 185 198 206 315 327 287 245 228 221 218 217 216 210
191 55 354 338 8 300 9 69 49 89 134 203 185 145 150 149 153 158 169 176 179 181 187 190 190 190 191 193 195 196 195 194 192 194 199 204 207 216 233 278 337 350 326 255 225 215 211 209 207
90 93 236 190 254 192 90 68 87 115 137 116 107 111 144 152 155 156 155 170 182 192 197 206 210 207 207 210 210 215 213 211 211 213 217 218 219 209 203 219 244 269 302 254 209 201 202 201 199
149 183 212 277 188 207 99 83 94 125 246 40 110 134 150 161 168 167 163 173 171 186 197 217 219 226 232 236 238 233 235 233 230 231 235 238 238 233 232 240 233 220 215 168 154 165 175 218 244
295 242 216 250 223 132 95 129 113 48 85 112 131 145 149 158 164 185 196 195 195 201 212 219 220 222 228 234 241 250 251 255 257 256 256 256 259 253 247 247 219 210 206 195 198 208 219 243 264
186 295 170 172 284 78 131 154 89 88 107 118 125 133 129 129 135 156 188 206 213 221 230 239 233 234 234 241 248 247 263 264 269 273 270 267 265 267 262 255 233 214 217 227 237 249 255 267 268
307 306 26 209 143 101 104 144 106 99 120 118 127 119 130 138 131 139 149 176 197 207 217 232 236 239 241 246 252 252 254 255 262 277 290 277 275 271 270 264 253 241 237 244 258 264 268 271 270
334 2 350 323 342 95 117 41 48 139 131 107 109 114 126 125 156 151 146 155 178 199 217 236 251 251 252 249 254 257 261 265 274 272 279 272 276 276 274 274 270 266 260 261 268 269 274 278 267
33 49 30 286 28 45 117 133 203 145 139 108 103 107 115 111 108 128 160 199 229 234 253 272 269 257 262 255 254 260 265 271 276 276 274 272 269 274 274 275 278 277 272 274 275 280 282 286 286
13 252 240 311 287 192 80 97 114 118 110 94 94 95 97 102 105 101 103 105 292 283 277 274 270 257 264 265 257 260 272 273 276 272 276 275 277 275 272 271 280 277 269 275 276 276 280 282 286
254 355 335 258 313 67 86 115 77 99 97 95 94 92 92 94 83 87 103 128 192 263 251 241 240 246 255 267 262 256 255 252 259 262 265 262 270 276 286 281 272 268 265 265 272 276 283 286 286
149 118 80 331 342 75 99 99 87 85 83 88 95 97 89 85 81 88 94 96 76 32 333 230 239 238 251 242 237 239 247 255 277 262 267 282 277 275 273 276 276 269 267 259 263 268 278 286 288
82 99 345 310 0 91 106 80 56 42 55 105 119 115 109 102 100 97 95 90 80 74 59 356 321 287 280 287 281 274 272 282 290 288 287 290 291 288 282 276 278 272 264 266 264 271 260 261 299
29 111 81 121 344 56 112 104 112 49 78 101 123 134 134 134 120 103 92 81 73 65 52 37 11 1 356 355 345 324 307 303 304 303 308 315 319 325 320 280 275 272 283 287 293 266 278 266 275
108 188 132 90 59 216 45 250 140 153 140 140 141 141 146 144 140 122 104 88 68 57 52 45 39 26 26 24 17 7 353 357 3 348 335 330 337 345 336 317 297 268 258 255 252 255 265 274 269
189 151 77 123 120 103 343 103 208 153 199 190 170 159 159 154 141 128 108 82 67 58 40 34 32 23 17 11 12 17 23 26 23 18 10 3 6 0 356 330 285 271 254 247 248 272 283 277 226
109 79 55 62 101 63 237 140 239 192 189 155 197 180 166 157 148 130 103 80 71 67 49 33 21 16 18 24 26 31 33 36 34 36 35 23 18 26 22 359 324 299 285 279 268 283 273 252 241
68 55 350 351 7 220 244 67 246 179 165 172 190 181 163 144 132 116 106 100 81 63 49 32 20 23 33 29 25 27 30 28 26 29 30 28 23 19 17 359 333 303 302 291 275 274 267 256 262
71 131 149 242 239 270 291 232 279 193 190 183 181 174 172 172 162 148 140 124 100 70 47 29 30 30 30 34 37 39 38 37 35 27 19 16 14 10 4 9 16 4 335 329 326 271 280 270 274
163 68 172 104 6 12 238 357 346 104 214 195 199 199 202 196 188 177 172 164 140 89 50 41 47 38 47 48 53 45 35 30 30 32 29 23 15 6 358 348 340 351 359 323 4 16 358 342 321
87 155 70 9 224 263 295 256 226 202 213 206 215 218 217 212 208 201 200 204 202 165 68 85 81 59 74 67 42 25 27 28 30 29 30 28 22 12 6 355 347 338 338 326 309 317 352 19 18
356 21 51 118 145 187 271 267 214 205 198 204 216 220 221 220 219 214 215 212 208 197 174 162 221 170 124 46 12 24 23 27 26 27 26 25 25 24 17 9 357 344 338 334 336 333 305 293 283
192 131 127 128 233 222 154 275 293 220 202 200 218 224 230 234 235 231 227 224 224 210 207 246 242 208 216 286 56 31 14 14 18 15 15 16 20 20 14 9 9 5 346 334 322 325 327 326 319